Regional Weather Roundup
Issued by NWS

Home | Current Version | Previous Version | Graphics & Text | Print | Product List | Glossary On
Versions: 1 2 3 4 5 6 7 8 9 10 11 12 13 14 15 16 17 18 19 20 21 22 23 24 25 26 27 28 29 30 31 32 33 34 35 36 37 38 39 40 41 42 43 44 45 46 47 48 49 50
000
ASUS43 KDMX 011808
RWRIA

WEATHER ROUNDUP FOR IOWA
NATIONAL WEATHER SERVICE DES MOINES IA
100 PM CDT SAT OCT 01 2016

NOTE: "FAIR" INDICATES FEW OR NO CLOUDS BELOW 12,000 FEET WITH NO
SIGNIFICANT WEATHER AND/OR OBSTRUCTIONS TO VISIBILITY.

* - THESE STATIONS ARE NOT NWS STATIONS...THUS NOT UNDER NWS
QUALITY CONTROL.  THEY ALSO DO NOT REPORT WEATHER SUCH
AS PRECIPITATION OR FOG.

IAZ001>003-012>014-020>022-031>034-043>046-011900-
   NORTHWEST IOWA

CITY           SKY/WX    TMP DP  RH WIND       PRES   REMARKS
CARROLL *      CLOUDY    63  57  82 E6        30.11F
CHEROKEE *     CLOUDY    65  58  75 CALM      30.12F
DENISON *      CLOUDY    64  55  72 NE9       30.10F
LE MARS *      CLOUDY    64  55  72 CALM      30.13F
SHELDON *      CLOUDY    68  55  64 VRB6      30.11F
SIOUX CITY     CLOUDY    65  58  78 SE5       30.13F
6HR MIN TEMP:  57; 6HR MAX TEMP:  66;

SPENCER        CLOUDY    68  55  63 N7        30.12F
6HR MIN TEMP:  58; 6HR MAX TEMP:  68;

STORM LAKE *   CLOUDY    64  55  72 CALM      30.12F
$$

IAZ055>058-069>071-079>083-090>094-011900-
   SOUTHWEST IOWA

CITY           SKY/WX    TMP DP  RH WIND       PRES   REMARKS
ATLANTIC *     PTSUNNY   63  57  82 N8        30.11F
AUDUBON *      CLOUDY    63  57  82 NE5       30.12F
CLARINDA *       N/A     66  55  68 MISG      30.13S
COUNCIL BLFS * PTSUNNY   63  57  82 VRB5      30.12F HAZE
CRESTON *      CLOUDY    63  57  82 CALM      30.12F
HARLAN  *      CLOUDY    64  57  77 NE7       30.15F
LAMONI         CLOUDY    66  56  70 VRB3      30.09F
6HR MIN TEMP:  58; 6HR MAX TEMP:  66;

RED OAK *      CLOUDY    64  57  77 CALM      30.11F HAZE
SHENANDOAH *   CLOUDY    64  55  72 CALM      30.12F
$$

IAZ047>049-059>061-072>074-084-011900-
   CENTRAL IOWA

CITY           SKY/WX    TMP DP  RH WIND       PRES   REMARKS
AMES           CLOUDY    66  59  78 N9        30.08F
6HR MIN TEMP:  59; 6HR MAX TEMP:  66;

ANKENY *         N/A    N/A N/A N/A MISG        N/A
BOONE *        CLOUDY    64  57  77 N9        30.09S
CHARITON *       N/A     64  57  77 VRB6      30.08F
DES MOINES     CLOUDY    66  57  72 VRB3      30.08F
6HR MIN TEMP:  60; 6HR MAX TEMP:  66; 6HR PCP: TRACE;

GRINNELL*      CLOUDY    63  56  79 N5        30.09S
KNOXVILLE *    CLOUDY    64  57  77 N7        30.07F
MARSHALLTOWN   CLOUDY    63  58  83 N6        30.08F
6HR MIN TEMP:  58; 6HR MAX TEMP:  64;

NEWTON *       CLOUDY    64  57  77 VRB6      30.07F
PELLA *        CLOUDY    65  56  73 NW3       30.09F
PERRY *        CLOUDY    65  59  82 N6        30.10F
$$

IAZ004>006-015-016-023>025-035-036-011900-
   NORTH CENTRAL IOWA

CITY           SKY/WX    TMP DP  RH WIND       PRES   REMARKS
ALGONA *       CLOUDY    66  55  68 NE9       30.11F
CLARION *      CLOUDY    66  57  72 N8        30.10S
ESTHERVILLE    CLOUDY    67  55  65 E9        30.11F
6HR MIN TEMP:  57; 6HR MAX TEMP:  68;

FORT DODGE *   CLOUDY    66  55  68 N5        30.10F
MASON CITY     CLOUDY    67  56  67 N6        30.11F
6HR MIN TEMP:  57; 6HR MAX TEMP:  67;

FOREST CITY *  CLOUDY    66  55  68 NE5       30.10F
WEBSTER CITY * PTSUNNY   68  57  68 NE10G17   30.07F
IOWA FALLS *   CLOUDY    67  58  73 NE6       30.09F
$$

IAZ007>011-017>019-026>030-037>042-050>054-066-011900-
   NORTHEAST IOWA

CITY           SKY/WX    TMP DP  RH WIND       PRES   REMARKS
CEDAR RAPIDS   LGT RAIN  62  62 100 N5        30.06S
6HR MIN TEMP:  59; 6HR MAX TEMP:  62; 6HR PCP:  0.01;

CHARLES CITY * PTSUNNY   66  57  72 NE8       30.09F
CLINTON *      CLOUDY    67  58  72 NE9       30.04S
DECORAH *      CLOUDY    63  57  82 NE9       30.08F
DUBUQUE        CLOUDY    63  60  90 N10       30.06S
6HR MIN TEMP:  58; 6HR MAX TEMP:  63; 6HR PCP:  0.01;

MONTICELLO *   PTSUNNY   63  59  88 CALM      30.06S
OELWEIN *      CLOUDY    63  57  82 N9        30.09S
WATERLOO       CLOUDY    65  58  78 N8        30.07F
6HR MIN TEMP:  57; 6HR MAX TEMP:  65; 6HR PCP:  0.02;

$$

IAZ064-065-067-068-078-011900-
   EAST CENTRAL IOWA

CITY           SKY/WX    TMP DP  RH WIND       PRES   REMARKS
DAVENPORT      LGT RAIN  63  59  87 N8        30.04F FOG
6HR MIN TEMP:  59; 6HR MAX TEMP:  65; 6HR PCP:  0.01;

IOWA CITY      CLOUDY    64  59  83 N6        30.07F
6HR MIN TEMP:  60; 6HR MAX TEMP:  65; 6HR PCP:  0.01;

MT. PLEASANT * CLOUDY    67  59  76 N6        30.05F
MUSCATINE *    CLOUDY    64  59  82 N5        30.05S
QUAD CITIES    CLOUDY    66  60  81 N3        30.03F
6HR MIN TEMP:  61; 6HR MAX TEMP:  66; 6HR PCP: TRACE;

$$

IAZ062-063-075>077-085>089-095>099-011900-
   SOUTHEAST IOWA

CITY           SKY/WX    TMP DP  RH WIND       PRES   REMARKS
BURLINGTON     CLOUDY    64  59  83 N8        30.04F
6HR MIN TEMP:  59; 6HR MAX TEMP:  65;

FAIRFIELD *    CLOUDY    66  55  68 NW8       30.05F
FORT MADISON *   N/A     64  57  77 NW3       30.06S
KEOKUK *       CLOUDY    66  59  77 NW6       30.05S
OSKALOOSA *    CLOUDY    66  57  71 NW5       30.07F
OTTUMWA        CLOUDY    66  55  67 N8        30.07F
6HR MIN TEMP:  59; 6HR MAX TEMP:  66; 6HR PCP: TRACE;

WASHINGTON *     N/A    N/A N/A N/A MISG        N/A
$$

ABBREVIATIONS USED IN REMARKS
   TC - TEMPERATURES IN CELSIUS
  WCI - WIND CHILL INDEX
   HX - HEAT INDEX
  VSB - VISIBILITY
$$





USA.gov is the U.S. government's official web portal to all federal, state and local government web resources and services.